User: anonymous   Login
Location: Cincinnati Observatory Center
(39.1389°N, 84.4225°W)
Time: 22:46:04
(UTC-04:00)
Language:

JAS-1B - Orbit

View from above orbital plane
View from above orbital plane
View from above satellite
View from above satellite

Ground track
Ground track

The orbit data is extracted from the following two-line orbital elements,

1 20480U 90013C   16146.50914999 -.00000033  00000-0 -25120-5 0  9994
2 20480  99.0236 347.0757 0540155 189.6139 228.9660 12.83411239231996
Epoch (UTC): 25 May 2016 12:13:10
Eccentricity: 0.0540155
inclination: 99.0236°
perigee height: 911 km
apogee height: 1744 km
right ascension of ascending node: 347.0757°
argument of perigee: 189.6139°
revolutions per day: 12.83411239
mean anomaly at epoch: 228.9660°
orbit number at epoch: 23199

The dashed part of the orbit path shows where the satellite is in the earth's shadow,  

DLR